loading
|

SL-8 R/B, 3048

Orbit data source: Space-Track

SL-8 R/B, 3048 is space debris in LEO originally from a launch on Thu, 23 Nov 1967 UTC launched from the Plesetsk Missile And Space Complex (PKMTR). Debris objects in space refer to the collection of defunct objects orbiting the Earth. Examples of debris include non-operational satellites, rocket bodies, and fragments generated from explosions, collisions, or faulty payload assembly.

Loading next visibility...
Loading greatness...
SL-8 R/B details
Identifier
3048, 1967-116B
Orbit
LEO
Last TLE update1 day ago
Origin
Flag of CISRVSN (CIS)
ManufacturerYuzhnoe
MissionSpacecraft
Bus & MotorS3, Unknown motor
Mass1,434 kg wet, 1,434 kg dry
Launch date (UTC)
1967-11-23 (57 years ago)
Launch vehicleUnknown
Launch site
Plesetsk Missile And Space Complex (PKMTR)
Object type
Payload
Rocket body
Debris
Shape & HBRCyl, 4.2 m
Radar Cross Section10.179 m², Large (>1 m²)

Expand to show TLE details & history

TLE from 1 day ago
0 SL-8 R/B
1 03048U 67116B   24276.41700022  .00002813  00000-0  56558-3 0  9999
2 03048  74.0072 325.3351 0007446 244.1450 126.6639 14.62078033 14978
Epoch: 2024-10-02T10:00Z
Definitive object data (Epoch: 2024-10-02T10:00:28.819Z)
Latitude10.40452°
Longitude166.59874°
Altitude691.506 km
Speed7.51 km/s
True Right ascension21h 53m 20s
True Declination10° 20' 35"
Sunlit
Object was in full shadow at TLE epoch
Predictive object data (real-time)
Latitude-58.62749°
Longitude9.15767°
Altitude703.505 km
Speed7.506 km/s
Apparent Right ascension17h 34m 04s
Apparent Declination-73° 10' 41"
Sunlit
Object is in daylight
Predictive observer data (real-time)
Local Sidereal Time08:49:38
Azimuth160.392° S
Elevation-49.477°
Doppler factor1
Orbital elements
Apogee689.328 km
Perigee678.811 km
Semi-major axis7,062.207 km
Eccentricity0.0007446
Inclination74.0072°
RAAN325.3351°
Arg. of periapsis244.145°
True anomaly126.73231°
Mean anomaly126.6639°
Eccentric anomaly126.69811°
Mean motion3.65706 °/min
BSTAR0.00056558
Period98.44 mins
No data available

SL-8 R/B Visibility forecast

Observer location: 39.9160978°, -105.1181434

SL-8 R/B is not visible in the next 10 days
Span
Click to sort rows by Start time (UTC) header in descending order
Start Az.
Max El. time (UTC)
Max El. Az.
Max El.
End time (UTC)
End Az.